Wind_Speed
40 36 35 37 39 41 43 43 42 42 44 46 48 51 52 51 50 50 49 49 49 50 50 51 52 53 54 55 55 55 55 55 56 57 57 56 55 52 51 52 53 53 53 53 54 56 57 57 56 56 55 56 57 58 58 58 58 58 59 60 61 62
37 36 37 40 42 46 47 44 42 42 45 47 48 50 51 51 51 52 51 51 51 51 52 52 53 54 54 55 56 56 56 56 57 58 59 59 57 54 51 51 52 51 51 50 51 52 53 54 54 54 55 56 58 59 60 60 60 61 62 62 63 64
38 38 39 41 45 51 53 48 42 43 46 47 48 50 52 52 52 53 54 54 53 54 54 55 55 55 56 56 56 57 58 58 57 58 59 59 56 53 52 52 52 51 51 50 50 50 52 54 55 56 57 59 61 62 62 62 62 63 64 64 65 66
41 41 43 45 50 55 57 53 47 46 48 49 50 52 53 55 55 56 57 58 57 56 56 57 56 56 57 58 59 59 60 59 59 60 59 57 55 54 53 52 52 52 51 50 51 51 53 55 56 57 59 61 62 62 63 63 64 65 65 65 66 67
46 46 49 52 56 58 58 55 52 51 52 53 54 54 55 56 57 58 59 60 60 59 59 59 59 59 59 60 61 61 61 61 61 60 58 56 56 54 53 52 52 51 51 51 51 52 54 56 57 58 58 59 60 61 62 63 64 64 64 65 66 66
52 53 56 58 59 59 60 58 55 55 55 57 58 58 59 59 59 59 59 60 61 61 61 61 61 62 62 61 61 60 61 62 61 60 58 57 56 53 51 51 51 50 51 51 53 55 57 59 60 60 59 59 61 63 63 64 63 63 63 64 64 65
55 55 56 57 57 57 59 58 55 55 56 57 59 59 59 59 59 60 60 61 62 63 63 63 63 64 63 61 59 59 61 62 61 60 59 57 54 52 51 51 51 52 53 55 57 58 59 61 61 61 61 62 64 65 64 63 61 61 62 63 64 64
52 50 50 51 53 55 58 56 53 52 51 51 53 53 53 53 55 57 59 61 63 65 66 67 66 63 61 58 58 59 60 60 59 59 58 56 54 53 53 54 55 57 59 59 59 59 60 61 62 62 63 63 64 64 63 61 61 61 62 64 65 66
51 49 48 49 51 53 55 54 51 50 50 52 53 52 51 51 51 53 56 58 61 63 65 66 63 60 58 58 59 60 60 58 57 56 55 55 56 57 57 59 60 62 62 61 60 60 61 62 62 61 61 62 63 63 63 62 62 63 65 66 67 68
53 55 54 54 53 52 52 53 52 52 53 54 55 54 53 52 51 52 53 55 57 59 61 62 60 58 58 59 60 61 59 57 56 55 55 55 57 60 62 63 64 64 62 61 60 61 61 61 60 60 60 62 64 64 64 65 66 66 68 69 69 69
58 60 59 59 59 57 56 57 58 58 58 58 57 56 56 56 55 54 54 55 55 57 59 59 59 58 59 59 60 60 58 57 57 57 58 58 59 62 64 65 65 63 61 61 61 61 61 61 61 62 63 65 65 66 66 66 67 67 67 67 67 66
62 63 63 63 63 63 62 62 61 62 63 63 61 60 60 61 60 59 60 60 59 58 58 59 58 58 58 57 57 57 57 57 58 59 60 61 61 62 64 64 64 62 61 61 61 61 60 60 61 62 63 64 64 64 64 63 63 63 63 63 62 63
66 67 68 68 68 68 68 67 66 67 67 67 66 65 65 66 66 66 65 63 61 59 58 58 58 57 56 55 55 54 55 56 58 59 60 61 61 62 64 64 63 61 60 60 60 59 59 58 58 59 59 59 59 59 59 59 59 59 59 59 60 61
68 70 71 70 70 71 72 73 74 74 75 75 75 75 75 75 74 71 65 60 58 56 56 57 57 56 55 54 53 53 54 56 57 58 59 60 62 63 64 64 63 60 59 59 58 57 56 55 56 56 56 56 55 55 56 56 57 57 58 59 60 61
72 73 73 72 73 76 78 80 81 80 81 82 82 81 81 80 79 74 65 60 58 56 56 56 56 55 54 52 52 54 55 57 59 60 61 62 63 64 65 64 63 61 60 58 56 54 53 53 53 54 54 55 55 55 55 55 55 56 57 59 60 62
75 76 78 80 82 82 81 83 84 85 86 86 85 84 83 80 77 71 65 62 61 59 57 57 56 55 54 55 55 56 57 58 59 61 63 64 65 65 66 66 64 62 59 56 54 53 52 52 53 54 55 55 56 55 54 53 53 55 56 58 59 59
75 78 83 87 88 86 84 85 87 87 86 85 85 84 82 78 74 69 66 64 62 60 58 57 56 56 57 58 57 57 57 58 60 62 64 65 67 67 67 67 65 60 57 54 52 52 52 52 53 55 56 56 57 56 54 54 55 57 58 59 59 59
76 78 80 82 83 83 83 83 85 85 83 81 82 81 78 75 73 70 68 67 65 61 58 57 57 57 57 58 59 58 58 58 60 63 65 67 68 68 69 68 63 58 56 53 51 51 51 52 53 55 56 58 59 58 56 56 58 60 61 62 63 63
75 75 75 76 77 79 79 79 81 82 79 77 78 79 77 76 75 72 70 69 68 65 60 59 59 59 58 59 60 60 60 60 61 63 65 66 67 69 70 67 61 58 57 54 51 51 53 54 55 56 58 60 61 61 60 60 61 62 63 65 66 66
70 72 73 74 75 75 75 75 76 78 78 77 78 80 79 78 78 75 73 72 72 69 65 63 62 61 61 61 61 62 61 61 61 62 63 65 66 69 71 67 61 59 59 55 53 54 56 57 58 59 61 62 64 64 64 63 64 65 66 66 67 67
62 64 68 70 72 72 72 72 73 74 75 77 79 81 81 80 80 78 75 75 76 73 69 65 63 63 64 64 63 63 62 62 62 63 64 65 65 67 69 66 61 60 60 57 56 58 60 61 62 64 63 64 66 67 66 66 66 66 66 66 66 67
62 61 62 66 69 70 72 74 74 74 75 76 76 78 79 80 80 80 79 78 77 75 70 65 63 63 65 65 65 64 63 63 63 63 64 64 64 64 66 65 64 64 63 62 61 62 64 65 66 66 64 64 65 65 66 67 68 69 68 68 68 69
65 63 62 63 67 69 71 73 75 76 76 76 74 73 74 76 77 78 78 75 73 71 68 65 63 65 66 67 67 67 66 64 62 62 62 62 62 62 62 63 65 66 66 64 63 64 66 67 67 66 64 64 64 64 66 69 70 71 71 71 72 73
67 65 64 63 66 69 70 71 72 72 73 73 72 73 73 74 75 75 74 73 70 68 65 65 65 67 68 69 70 70 68 64 62 61 60 60 60 60 60 62 63 64 65 64 65 66 68 68 68 67 66 66 66 66 67 70 71 72 73 74 75 76
70 66 64 65 67 69 70 70 70 70 71 72 73 74 75 75 76 76 75 75 73 69 67 68 68 69 71 71 72 70 68 65 62 61 60 59 60 60 60 60 61 63 65 66 67 68 69 69 70 71 70 69 69 68 68 70 71 72 73 74 75 77
71 67 64 64 66 67 69 69 69 70 71 73 74 75 76 76 76 77 76 76 75 72 71 71 70 71 71 71 70 69 67 65 63 62 61 60 60 60 59 60 61 63 66 69 71 71 71 72 74 74 74 73 73 72 71 72 73 72 73 75 76 78
72 69 66 63 64 66 68 69 70 70 72 73 73 73 73 74 74 74 74 74 74 74 73 72 71 69 68 68 67 66 65 65 64 63 62 61 60 59 60 60 62 63 66 70 73 75 76 76 77 77 78 78 78 76 75 75 75 75 76 77 78 79
73 73 71 67 65 67 69 70 70 71 72 74 73 72 72 72 72 73 74 74 73 73 72 71 69 67 66 65 65 64 65 65 64 63 62 61 60 59 60 62 64 66 69 72 75 78 81 81 81 81 82 82 82 82 81 79 78 79 81 81 81 82
72 74 75 72 69 70 72 73 73 73 75 76 75 74 73 72 72 73 74 74 73 72 72 71 69 67 66 66 65 65 65 66 65 63 62 61 60 61 62 63 63 65 67 70 75 79 81 82 83 83 83 85 86 87 87 86 85 85 86 85 84 83
75 76 76 75 74 74 76 76 77 77 78 79 79 78 77 77 76 76 75 74 73 73 73 72 71 69 68 68 67 67 67 68 68 66 64 63 63 63 63 64 65 66 68 71 75 77 79 79 80 80 82 84 86 89 91 91 91 90 88 86 84 83
81 82 81 80 79 80 80 79 79 80 81 82 82 81 80 80 80 79 77 76 76 75 75 75 74 73 72 72 71 71 70 70 71 71 69 67 66 66 66 67 69 71 72 73 75 76 76 76 76 78 80 83 84 86 89 89 88 86 85 84 84 83
87 85 84 83 83 83 82 81 80 81 83 85 84 82 81 81 81 80 79 79 79 78 77 77 77 77 76 76 76 75 74 73 73 74 74 72 69 69 70 70 71 72 74 75 75 75 76 76 77 80 83 83 83 84 84 84 84 84 85 86 86 83
91 87 84 83 83 84 84 82 82 83 85 88 88 86 83 82 83 83 81 81 80 80 79 80 80 80 79 78 77 77 76 76 76 77 77 76 74 74 74 74 73 74 75 76 77 77 77 77 78 80 82 82 83 83 84 85 87 89 90 90 87 81
95 90 86 84 83 84 84 83 82 83 86 89 91 90 88 85 85 85 85 84 83 83 83 83 82 82 80 78 78 78 78 79 80 80 80 80 79 78 77 76 74 75 76 77 79 80 80 80 81 82 84 85 86 87 89 91 93 93 90 86 81 75
98 96 93 91 88 87 86 84 82 83 86 89 92 93 91 88 86 86 87 87 87 87 87 87 85 84 81 80 80 81 81 81 82 83 83 83 83 83 81 80 79 78 78 78 79 82 83 83 84 86 88 90 91 93 95 96 95 91 86 80 73 69
105 102 100 99 97 94 92 88 85 84 87 89 91 94 94 91 89 88 88 89 88 87 87 88 88 87 85 84 84 85 84 81 80 81 82 83 84 83 83 83 82 80 77 78 80 83 84 85 88 90 92 92 93 94 94 92 88 83 78 72 67 65
111 110 109 108 107 105 102 97 94 95 98 98 96 96 95 93 91 91 90 89 88 86 86 87 88 87 87 87 88 88 88 87 85 84 83 84 84 83 82 83 83 83 85 88 90 91 92 94 95 95 94 93 92 90 86 81 76 73 68 65 64 64
112 114 115 116 116 115 114 112 110 111 113 112 108 104 100 97 94 94 93 92 90 89 88 88 88 88 88 88 88 89 90 91 90 89 88 87 87 86 86 87 88 90 94 98 97 96 95 95 94 94 92 89 84 79 75 72 69 66 64 63 63 64
Wind_Direction
286 274 257 249 258 269 271 268 267 270 273 274 274 273 273 273 275 274 272 270 269 268 268 269 269 270 272 275 277 279 280 280 280 279 279 279 277 275 273 271 271 271 271 270 270 271 272 274 275 275 276 277 277 277 277 277 277 278 279 280 280 281
278 268 256 247 256 271 274 270 268 271 273 275 273 272 271 272 271 270 269 269 268 267 267 268 269 271 273 275 277 278 279 278 278 278 278 277 276 275 274 273 273 273 273 272 271 271 271 273 274 275 277 277 278 278 278 278 279 279 280 281 281 282
276 264 255 249 255 269 274 271 270 272 272 273 274 274 275 274 272 270 268 268 267 266 266 267 269 270 271 273 275 277 277 278 278 278 276 275 273 273 273 273 273 273 272 272 272 272 272 273 275 276 278 278 279 279 279 279 280 280 281 281 282 283
275 263 255 252 255 264 270 271 273 273 271 272 275 275 276 276 275 273 270 269 268 268 268 268 269 270 271 273 274 275 275 276 277 276 274 273 272 271 272 272 272 272 272 273 274 275 276 276 278 278 279 279 279 279 279 279 279 280 281 282 283 284
271 266 261 258 259 263 267 268 272 274 274 276 278 278 279 279 278 275 273 271 271 271 270 270 271 272 272 273 274 274 274 274 274 273 272 272 272 272 271 270 271 272 274 276 278 279 280 280 280 280 280 280 281 281 281 281 282 282 283 283 283 284
271 269 267 264 265 267 268 268 270 273 275 278 280 281 282 282 280 278 276 274 272 273 273 273 273 273 273 274 275 274 272 271 272 271 271 273 273 271 270 270 272 274 276 279 280 281 281 281 281 281 282 283 284 284 284 284 284 284 284 284 283 283
270 269 267 266 267 267 268 269 271 274 276 278 279 281 282 281 279 277 277 276 274 274 275 276 276 275 275 276 276 272 269 269 270 269 271 273 271 269 270 272 274 276 279 281 281 281 280 280 280 281 283 284 284 284 284 284 284 284 283 283 282 283
264 264 266 269 270 268 267 268 271 273 274 274 276 279 280 280 278 276 275 276 275 275 276 277 277 276 276 276 274 270 268 268 268 269 272 272 269 269 272 275 277 279 281 281 281 280 279 279 281 282 283 283 284 284 284 283 283 282 282 282 283 284
255 256 262 267 270 272 269 266 267 269 269 271 274 276 278 280 281 280 278 277 276 276 276 276 276 276 276 274 271 269 268 266 267 270 273 272 269 271 274 276 278 280 280 279 278 278 279 280 281 282 283 283 283 282 282 282 281 281 282 283 284 285
252 256 261 264 269 271 269 264 264 265 266 268 271 272 274 277 279 280 279 279 279 278 277 275 274 273 273 271 270 269 267 265 266 270 273 273 272 272 274 275 276 278 278 278 278 279 280 280 281 281 282 282 282 282 282 282 282 283 283 284 286 287
251 254 258 265 269 268 265 262 261 262 263 265 267 268 271 275 277 277 276 276 277 276 274 273 272 270 269 268 268 267 265 264 266 270 273 274 273 272 273 274 275 277 278 278 279 280 280 280 281 282 282 283 283 283 283 283 284 285 285 286 287 288
254 254 256 262 267 268 267 266 264 264 265 266 268 268 271 275 276 276 276 276 275 271 269 269 268 266 265 265 265 264 264 265 268 271 273 274 273 273 273 273 275 277 278 279 279 279 280 281 282 283 283 283 283 284 284 285 285 286 287 287 288 288
261 261 260 260 263 266 268 268 269 269 269 269 269 270 272 274 275 275 276 276 273 269 265 264 263 261 261 262 263 264 266 268 271 273 274 274 274 273 273 273 274 276 278 279 279 280 282 283 283 282 282 282 282 283 284 285 286 286 287 287 288 289
261 261 259 258 260 264 266 268 269 270 270 270 271 272 273 273 274 275 274 270 267 264 261 259 258 259 259 261 264 267 270 271 273 273 274 274 273 272 272 272 274 276 278 278 280 281 281 281 280 280 280 281 281 282 283 284 285 286 287 289 290 291
262 261 259 258 259 263 267 269 270 270 270 271 272 273 272 272 272 273 271 266 262 259 256 255 256 257 259 263 268 271 273 274 274 273 273 273 272 272 272 273 274 276 277 278 279 280 279 278 278 278 279 279 279 281 281 283 285 288 289 291 292 293
265 264 261 259 262 266 269 270 270 269 270 270 270 270 269 269 269 268 265 263 260 257 255 256 257 260 263 268 272 274 274 275 274 274 273 273 273 273 273 273 273 275 276 277 278 278 278 278 277 277 277 278 278 279 279 282 286 289 291 293 294 295
263 262 260 260 264 267 268 267 267 267 267 267 266 266 266 266 264 262 260 258 256 255 256 258 261 265 269 273 275 276 276 276 276 275 274 273 273 273 273 273 273 275 275 275 276 277 278 278 277 276 277 277 277 276 277 281 285 288 291 293 294 296
261 261 261 262 264 266 266 264 263 263 263 264 264 264 262 261 259 257 256 255 254 255 257 260 264 268 271 273 275 277 278 278 276 274 274 273 274 274 273 273 274 274 273 273 275 278 278 279 279 278 278 277 276 274 275 280 285 288 290 292 294 296
261 262 262 264 265 265 265 263 261 260 259 259 260 261 259 258 257 255 254 255 256 257 259 261 264 267 270 272 276 278 278 278 276 275 275 275 275 274 273 273 274 273 271 272 275 277 278 280 281 280 279 278 276 274 274 279 285 288 290 291 294 296
261 261 261 262 263 264 263 261 259 258 257 256 258 260 260 260 260 259 258 260 262 263 264 264 265 266 270 273 275 276 276 276 276 275 276 276 276 276 275 275 275 273 270 272 275 276 278 280 281 281 279 277 275 273 274 279 284 287 289 291 293 295
260 260 261 261 261 262 261 260 259 258 257 258 259 262 262 262 262 262 262 264 265 266 267 268 266 267 270 273 273 273 274 274 275 275 276 276 277 277 278 278 277 273 271 272 274 275 277 279 280 281 280 277 275 274 275 279 283 286 288 290 292 294
258 260 261 261 261 261 261 261 261 260 259 259 260 262 263 263 262 261 261 262 264 266 268 268 267 267 270 271 271 272 273 273 274 275 275 275 276 277 278 279 277 274 271 271 272 273 276 278 280 281 279 276 276 277 279 281 283 284 286 289 291 294
259 261 260 259 260 261 261 261 260 260 260 260 261 262 262 262 261 260 260 262 264 266 266 266 266 268 269 270 270 272 273 273 273 274 274 274 274 275 276 275 275 272 270 269 270 272 275 278 280 280 278 277 278 280 281 282 283 284 286 289 291 293
261 262 260 259 258 258 258 259 259 259 259 260 261 262 262 262 262 262 263 264 265 265 264 264 265 267 267 268 269 271 272 271 271 271 272 273 274 274 274 273 272 271 271 271 271 272 274 277 278 278 277 277 278 279 281 282 284 285 287 289 291 293
261 261 260 260 257 255 255 256 257 258 259 261 261 262 262 263 263 264 265 265 265 264 263 262 263 264 264 266 268 269 269 269 269 270 272 273 273 273 273 272 271 272 273 273 272 272 274 276 276 276 275 274 276 278 280 281 283 285 287 289 291 294
260 259 258 258 256 253 252 253 255 256 257 258 259 260 260 260 262 264 265 265 265 264 263 263 263 262 262 263 264 265 267 268 269 270 272 273 274 274 275 275 275 274 274 273 271 272 273 275 276 275 274 273 275 277 279 281 283 285 287 289 291 293
260 260 258 256 255 254 253 253 255 255 255 255 256 256 257 258 258 260 260 262 263 264 264 264 263 261 259 260 262 264 265 267 268 269 271 273 273 274 276 278 279 279 277 275 273 272 273 274 276 276 274 272 273 275 277 280 282 285 287 289 290 293
260 262 262 259 257 256 255 255 256 255 254 252 252 252 254 256 256 257 258 259 261 262 263 262 259 257 257 258 261 263 264 265 266 268 270 271 271 273 275 277 279 279 278 277 275 274 274 274 275 275 275 273 272 273 276 279 282 284 286 287 289 292
254 258 259 259 259 258 257 256 256 256 253 251 249 250 251 253 254 255 257 257 259 260 261 259 256 255 256 258 260 262 263 264 265 266 267 268 268 270 271 273 274 275 276 277 277 276 275 274 274 275 276 275 274 274 275 278 281 283 284 285 288 291
250 251 250 251 254 256 256 256 257 257 254 251 249 249 250 251 253 254 254 256 258 261 261 257 254 254 256 257 259 260 261 262 263 263 264 264 265 266 267 269 272 274 275 276 277 276 275 275 275 276 277 277 276 275 275 277 279 281 282 284 287 291
250 248 246 247 249 251 253 254 256 257 254 250 249 249 249 251 253 253 253 255 257 259 259 257 255 255 256 258 259 258 257 257 259 260 261 262 263 264 266 268 270 270 270 270 271 272 273 274 275 276 276 277 277 276 275 276 278 280 283 286 289 291
249 245 244 245 246 247 249 252 255 257 255 250 248 248 249 250 251 252 252 253 255 256 256 255 254 255 256 258 259 258 256 254 255 257 259 260 260 261 263 265 267 268 268 269 270 271 272 273 273 274 275 277 277 276 276 277 280 283 285 288 290 291
249 245 244 243 243 245 247 249 252 254 254 252 249 247 247 247 248 249 250 251 252 254 254 254 253 254 256 257 258 258 256 255 255 255 256 256 256 257 259 261 263 266 268 270 271 272 273 273 273 274 276 276 276 277 279 281 283 285 287 288 289 290
249 248 247 245 244 244 245 247 248 249 250 250 250 248 247 246 247 247 248 249 250 251 253 253 252 253 254 254 255 256 256 257 257 256 256 255 255 256 257 259 261 263 265 268 271 272 273 273 274 276 278 278 279 281 283 284 286 287 288 288 288 288
250 250 251 251 250 247 245 246 247 248 249 248 248 249 248 246 246 246 247 248 249 250 251 252 252 251 251 251 252 251 251 252 253 254 255 255 255 255 257 258 260 261 263 265 268 271 272 274 276 278 279 280 282 283 284 285 286 286 287 287 286 284
253 252 253 254 255 253 250 247 247 252 254 252 249 248 247 246 246 246 246 247 248 249 250 250 251 250 250 249 249 249 249 249 251 252 253 254 255 256 256 257 258 260 263 266 269 272 273 276 278 279 280 280 281 281 282 283 284 284 284 283 281 280
258 257 257 257 258 257 255 252 251 255 259 259 256 251 248 246 247 247 247 247 247 248 249 250 251 251 251 250 250 250 251 253 255 256 256 256 257 258 258 257 259 262 267 272 275 276 277 277 278 279 279 279 279 280 280 281 281 280 279 276 275 277
261 261 261 261 262 261 261 260 260 261 262 264 263 257 251 248 248 249 249 248 249 249 249 250 250 252 254 254 254 253 253 254 256 258 260 261 262 261 260 259 261 265 271 275 277 278 278 277 276 275 275 276 276 276 276 276 275 273 272 271 272 275
Height
5676 5677 5677 5676 5676 5676 5675 5674 5673 5673 5672 5671 5670 5669 5669 5670 5670 5671 5671 5672 5671 5671 5670 5670 5669 5668 5667 5665 5664 5664 5663 5662 5660 5659 5658 5657 5656 5656 5655 5654 5654 5653 5653 5653 5651 5650 5648 5646 5645 5644 5643 5642 5641 5641 5640 5639 5638 5636 5634 5633 5631 5630
5670 5671 5670 5669 5668 5667 5666 5666 5667 5667 5665 5664 5663 5662 5662 5662 5662 5663 5663 5664 5663 5663 5662 5662 5661 5661 5659 5658 5657 5657 5656 5654 5654 5653 5651 5650 5648 5648 5647 5646 5645 5645 5645 5644 5643 5642 5641 5639 5638 5637 5636 5635 5634 5633 5632 5631 5629 5627 5625 5624 5622 5620
5665 5665 5664 5662 5660 5658 5657 5658 5660 5659 5658 5657 5656 5655 5654 5654 5654 5654 5654 5655 5655 5655 5654 5653 5653 5653 5651 5650 5650 5650 5648 5647 5646 5645 5643 5642 5641 5640 5639 5637 5637 5636 5636 5635 5635 5634 5633 5632 5630 5629 5628 5627 5626 5625 5624 5622 5620 5618 5616 5614 5612 5611
5658 5658 5657 5655 5652 5649 5649 5650 5651 5651 5651 5650 5649 5649 5648 5646 5645 5645 5645 5645 5645 5646 5646 5645 5645 5644 5643 5643 5642 5642 5640 5639 5638 5636 5635 5634 5632 5632 5631 5630 5629 5628 5628 5628 5627 5626 5625 5623 5622 5621 5620 5619 5618 5617 5615 5614 5611 5609 5607 5605 5603 5601
5650 5649 5648 5646 5642 5641 5641 5641 5642 5642 5642 5642 5641 5642 5642 5640 5638 5637 5636 5636 5636 5637 5637 5636 5637 5636 5635 5635 5634 5634 5633 5631 5630 5629 5628 5626 5624 5624 5623 5622 5622 5621 5620 5620 5618 5617 5616 5615 5614 5613 5612 5611 5609 5608 5607 5605 5603 5600 5598 5596 5594 5592
5640 5638 5636 5634 5632 5632 5632 5632 5633 5633 5633 5633 5632 5633 5633 5632 5631 5631 5629 5629 5629 5629 5628 5628 5629 5628 5627 5627 5626 5625 5624 5622 5622 5621 5620 5619 5617 5617 5616 5615 5614 5613 5612 5611 5610 5609 5607 5606 5605 5604 5603 5602 5600 5599 5598 5596 5594 5591 5589 5586 5584 5582
5629 5627 5624 5623 5623 5623 5622 5622 5623 5624 5624 5624 5623 5624 5625 5624 5623 5622 5622 5622 5621 5620 5620 5619 5619 5618 5618 5618 5617 5616 5614 5613 5614 5613 5612 5611 5610 5609 5608 5607 5606 5605 5604 5603 5602 5600 5599 5598 5597 5595 5594 5592 5591 5590 5588 5587 5585 5582 5579 5577 5574 5572
5619 5616 5614 5613 5612 5612 5612 5612 5613 5613 5614 5614 5614 5615 5615 5614 5614 5613 5613 5613 5612 5611 5611 5610 5609 5609 5609 5608 5607 5605 5605 5605 5605 5605 5603 5603 5602 5601 5600 5599 5597 5596 5595 5594 5593 5592 5591 5589 5588 5586 5585 5583 5582 5581 5579 5577 5575 5572 5569 5567 5565 5563
5608 5606 5604 5602 5601 5601 5600 5601 5602 5603 5603 5604 5605 5605 5604 5604 5603 5602 5603 5603 5603 5603 5602 5601 5600 5599 5599 5598 5597 5596 5596 5597 5597 5596 5595 5594 5593 5592 5591 5590 5589 5587 5587 5586 5585 5584 5582 5580 5579 5577 5575 5574 5573 5571 5570 5568 5566 5563 5560 5557 5555 5553
5594 5593 5593 5591 5590 5590 5589 5590 5592 5593 5594 5596 5596 5596 5595 5594 5593 5592 5592 5592 5593 5593 5593 5592 5591 5590 5589 5588 5587 5587 5588 5588 5588 5587 5586 5586 5585 5584 5583 5581 5580 5579 5578 5577 5576 5574 5573 5571 5569 5568 5566 5565 5564 5562 5561 5559 5556 5554 5551 5548 5546 5544
5582 5582 5581 5580 5580 5579 5579 5580 5582 5583 5585 5587 5588 5587 5586 5584 5583 5583 5583 5583 5584 5584 5583 5582 5581 5581 5580 5579 5579 5579 5579 5579 5579 5578 5578 5577 5576 5574 5573 5572 5571 5570 5569 5568 5567 5565 5563 5562 5560 5559 5557 5556 5555 5553 5552 5550 5547 5545 5543 5540 5538 5536
5573 5574 5573 5572 5570 5570 5569 5571 5573 5574 5574 5576 5577 5577 5576 5574 5573 5574 5574 5574 5575 5575 5573 5572 5572 5571 5571 5571 5571 5570 5570 5570 5569 5569 5568 5567 5565 5564 5563 5562 5561 5561 5560 5558 5557 5555 5554 5553 5551 5550 5548 5547 5546 5544 5542 5541 5539 5536 5534 5532 5530 5528
5567 5567 5566 5564 5562 5561 5561 5562 5563 5564 5564 5565 5566 5566 5566 5564 5564 5564 5564 5565 5566 5564 5563 5563 5562 5562 5562 5563 5563 5562 5562 5561 5560 5559 5558 5557 5555 5554 5553 5552 5552 5551 5550 5548 5547 5546 5544 5543 5541 5540 5539 5538 5537 5536 5534 5532 5531 5528 5526 5524 5522 5519
5557 5556 5555 5554 5552 5551 5551 5551 5552 5553 5553 5553 5554 5555 5555 5555 5555 5555 5555 5556 5555 5553 5553 5552 5551 5552 5553 5554 5554 5554 5553 5552 5551 5550 5548 5547 5545 5544 5543 5543 5542 5541 5540 5539 5537 5536 5535 5533 5532 5531 5531 5530 5528 5528 5526 5524 5522 5520 5518 5516 5513 5511
5547 5546 5544 5544 5541 5540 5540 5539 5540 5542 5542 5542 5543 5544 5545 5545 5546 5547 5547 5547 5546 5545 5544 5542 5541 5542 5543 5544 5544 5544 5543 5543 5542 5541 5539 5537 5536 5535 5534 5533 5533 5531 5530 5529 5528 5526 5525 5524 5523 5523 5522 5521 5520 5519 5518 5516 5514 5511 5509 5507 5505 5502
5538 5537 5536 5533 5531 5529 5529 5527 5528 5530 5531 5532 5533 5533 5534 5535 5536 5537 5538 5537 5537 5536 5534 5532 5532 5532 5533 5533 5533 5533 5533 5533 5532 5531 5530 5528 5527 5526 5525 5524 5523 5521 5520 5519 5517 5516 5516 5515 5515 5514 5514 5513 5512 5511 5509 5508 5505 5503 5501 5498 5496 5494
5525 5525 5524 5522 5520 5519 5518 5515 5515 5517 5520 5521 5521 5521 5522 5524 5525 5527 5527 5526 5526 5525 5523 5522 5522 5522 5522 5522 5522 5522 5523 5523 5522 5522 5521 5520 5518 5517 5516 5515 5514 5512 5511 5509 5508 5507 5507 5507 5506 5506 5505 5504 5504 5503 5501 5498 5496 5494 5492 5490 5487 5485
5512 5512 5512 5512 5510 5509 5507 5505 5504 5506 5509 5510 5509 5509 5511 5513 5513 5515 5515 5515 5515 5514 5513 5513 5512 5512 5513 5512 5512 5513 5513 5513 5513 5513 5512 5510 5509 5508 5508 5506 5505 5504 5502 5500 5499 5499 5498 5498 5498 5497 5497 5496 5495 5495 5493 5490 5487 5485 5484 5481 5478 5476
5500 5500 5500 5500 5499 5497 5496 5495 5493 5495 5498 5499 5498 5498 5499 5501 5502 5504 5504 5505 5505 5504 5503 5503 5503 5503 5503 5503 5503 5503 5504 5504 5504 5504 5502 5501 5500 5500 5498 5497 5496 5495 5493 5492 5491 5491 5490 5489 5489 5489 5488 5487 5486 5486 5485 5482 5479 5477 5475 5472 5469 5466
5489 5488 5487 5487 5487 5486 5485 5484 5483 5484 5486 5488 5487 5487 5489 5491 5492 5494 5495 5495 5495 5494 5493 5493 5493 5493 5494 5494 5494 5494 5495 5495 5495 5494 5493 5492 5491 5490 5489 5488 5487 5486 5485 5483 5482 5482 5481 5481 5481 5480 5479 5478 5477 5477 5476 5474 5472 5469 5466 5463 5460 5457
5478 5477 5476 5476 5476 5476 5474 5473 5473 5474 5476 5478 5479 5479 5481 5482 5483 5484 5485 5485 5484 5484 5483 5482 5483 5483 5484 5484 5484 5485 5486 5486 5485 5484 5483 5482 5482 5481 5480 5479 5478 5477 5476 5475 5474 5473 5473 5472 5472 5471 5469 5468 5468 5467 5466 5465 5463 5461 5458 5455 5452 5449
5468 5467 5467 5466 5465 5465 5464 5463 5463 5464 5466 5469 5471 5470 5470 5470 5471 5471 5472 5473 5473 5472 5472 5472 5472 5473 5473 5473 5473 5474 5475 5476 5475 5474 5473 5472 5472 5472 5471 5470 5469 5468 5467 5466 5465 5465 5464 5463 5462 5461 5460 5458 5458 5458 5457 5455 5454 5451 5449 5447 5443 5440
5457 5457 5457 5456 5455 5455 5454 5453 5454 5455 5456 5459 5460 5458 5457 5457 5458 5458 5459 5461 5462 5462 5461 5461 5461 5462 5463 5463 5462 5463 5464 5464 5464 5463 5462 5462 5462 5462 5462 5462 5461 5460 5458 5457 5457 5456 5455 5454 5453 5451 5450 5449 5449 5449 5447 5445 5443 5441 5439 5437 5434 5431
5445 5446 5446 5446 5445 5444 5444 5443 5444 5445 5445 5447 5447 5446 5446 5446 5446 5447 5449 5450 5451 5451 5451 5451 5452 5452 5452 5452 5452 5452 5452 5452 5452 5452 5452 5452 5452 5452 5452 5452 5452 5451 5449 5448 5448 5447 5446 5444 5443 5442 5441 5440 5439 5439 5437 5434 5432 5431 5429 5427 5425 5422
5433 5435 5435 5435 5434 5433 5433 5432 5433 5434 5434 5435 5434 5434 5435 5436 5435 5436 5438 5439 5439 5440 5440 5440 5442 5442 5442 5443 5442 5442 5441 5441 5441 5442 5442 5442 5442 5442 5442 5442 5442 5441 5440 5439 5439 5438 5436 5435 5434 5432 5431 5430 5429 5429 5427 5425 5422 5421 5420 5417 5415 5412
5419 5422 5423 5423 5421 5420 5421 5421 5421 5423 5424 5423 5422 5422 5423 5424 5424 5425 5427 5427 5428 5428 5428 5429 5430 5431 5431 5432 5432 5432 5432 5431 5431 5431 5431 5432 5432 5432 5432 5432 5432 5432 5431 5430 5429 5428 5427 5426 5424 5423 5422 5421 5420 5418 5418 5416 5413 5411 5410 5407 5404 5402
5404 5407 5409 5411 5410 5408 5409 5409 5410 5412 5413 5411 5410 5410 5411 5411 5412 5413 5414 5415 5416 5417 5417 5418 5419 5419 5420 5420 5421 5421 5422 5421 5421 5421 5421 5422 5422 5422 5422 5422 5422 5422 5421 5421 5420 5419 5418 5416 5414 5413 5412 5411 5410 5408 5407 5406 5403 5402 5400 5397 5394 5391
5389 5391 5395 5399 5400 5398 5397 5398 5398 5400 5400 5399 5398 5399 5399 5400 5401 5402 5402 5403 5404 5405 5406 5406 5407 5408 5409 5409 5410 5410 5411 5411 5411 5411 5411 5412 5412 5413 5412 5412 5412 5412 5411 5411 5410 5409 5407 5406 5404 5403 5402 5401 5399 5398 5396 5395 5394 5392 5390 5388 5384 5381
5376 5378 5381 5386 5388 5386 5384 5385 5386 5386 5386 5385 5386 5387 5388 5389 5390 5391 5391 5391 5393 5394 5394 5395 5396 5396 5397 5398 5398 5399 5400 5400 5401 5401 5402 5402 5402 5402 5403 5403 5403 5402 5402 5401 5399 5398 5397 5396 5394 5393 5393 5391 5390 5388 5387 5386 5385 5382 5380 5378 5374 5371
5363 5365 5367 5370 5373 5371 5370 5372 5374 5373 5373 5373 5374 5375 5376 5377 5377 5378 5379 5380 5381 5382 5383 5384 5385 5386 5387 5387 5388 5389 5390 5390 5390 5391 5392 5392 5392 5392 5392 5392 5392 5392 5392 5390 5389 5388 5387 5386 5385 5385 5384 5382 5381 5379 5378 5376 5374 5372 5370 5368 5365 5361
5350 5351 5353 5356 5357 5356 5356 5359 5361 5361 5361 5360 5361 5361 5362 5363 5364 5365 5367 5369 5370 5371 5372 5373 5374 5375 5376 5376 5378 5379 5380 5380 5381 5381 5381 5382 5382 5382 5382 5382 5382 5382 5381 5380 5379 5378 5377 5376 5376 5375 5372 5371 5371 5370 5368 5366 5364 5362 5360 5358 5355 5352
5335 5336 5339 5342 5342 5341 5342 5346 5348 5349 5348 5347 5347 5348 5349 5350 5352 5353 5355 5357 5359 5360 5361 5362 5363 5364 5365 5366 5367 5368 5368 5370 5371 5371 5371 5372 5373 5372 5373 5373 5373 5372 5371 5370 5369 5368 5367 5367 5365 5363 5361 5361 5360 5358 5357 5355 5353 5352 5351 5348 5345 5342
5321 5321 5323 5327 5327 5326 5328 5332 5336 5337 5336 5334 5333 5334 5335 5337 5339 5341 5344 5346 5347 5349 5350 5350 5352 5353 5354 5355 5356 5357 5357 5358 5359 5359 5360 5361 5362 5361 5361 5362 5363 5362 5361 5361 5360 5359 5358 5357 5354 5353 5352 5351 5349 5347 5346 5344 5343 5342 5340 5337 5334 5331
5306 5305 5307 5310 5311 5312 5314 5318 5323 5326 5323 5320 5320 5320 5321 5323 5326 5328 5332 5333 5334 5336 5337 5338 5340 5341 5342 5344 5345 5346 5347 5347 5347 5348 5348 5349 5350 5349 5349 5350 5350 5350 5350 5350 5350 5349 5348 5346 5344 5344 5342 5340 5337 5336 5335 5333 5332 5330 5328 5325 5323 5321
5289 5290 5292 5293 5295 5298 5300 5304 5310 5312 5309 5306 5306 5307 5308 5310 5312 5315 5318 5319 5321 5322 5324 5326 5328 5330 5331 5332 5332 5333 5334 5335 5335 5336 5336 5337 5338 5338 5338 5338 5337 5337 5337 5338 5337 5337 5336 5334 5334 5333 5332 5329 5327 5325 5324 5323 5321 5319 5316 5314 5313 5311
5271 5275 5276 5276 5278 5282 5284 5289 5295 5295 5292 5292 5294 5294 5295 5297 5299 5300 5303 5305 5306 5308 5311 5313 5315 5316 5318 5319 5319 5320 5320 5321 5322 5322 5323 5324 5325 5326 5326 5326 5325 5326 5326 5326 5325 5325 5324 5324 5323 5322 5320 5319 5316 5314 5313 5312 5310 5307 5305 5304 5303 5302
5253 5257 5259 5258 5261 5264 5268 5274 5279 5276 5273 5276 5279 5280 5282 5285 5286 5287 5289 5291 5293 5295 5298 5300 5301 5303 5304 5305 5306 5307 5307 5307 5307 5308 5309 5310 5312 5312 5313 5313 5314 5315 5315 5314 5313 5313 5313 5313 5312 5309 5307 5306 5304 5302 5302 5302 5299 5297 5296 5295 5293 5293
5236 5239 5240 5240 5242 5245 5250 5257 5260 5257 5255 5258 5262 5265 5268 5270 5271 5273 5275 5277 5279 5282 5284 5286 5288 5289 5291 5292 5293 5294 5294 5293 5294 5295 5296 5297 5298 5299 5301 5302 5302 5303 5302 5300 5299 5299 5299 5299 5299 5296 5295 5294 5292 5292 5292 5291 5290 5289 5288 5286 5285 5285